[[{"header":{"parameterUnit":"m.s-1","parameterCategory":1,"la1":30.2991,"la2":30.254,"lo1":-89.0895,"lo2":-89.0444,"dy":0.0017,"dx":0.0017,"nx":28,"ny":28,"refTime":"2025-04-30T21:00:00:Z","depth":0,"parameterNumber":2,"parameterNumberName":"U-component_of_WINDS"},"data":[0,0,0,0,0,0,0,0,0,0,0,0,0,0,0,0,0,0,0,0,0,0,0,0,0,0,0,0,0,0,0,0,0,0,0,0,0,0,0,0,0,0,0,0,0,0,0,0,0,0,0,0,0,0,0,0,0,0,-0.4575,-0.4576,0,-0.4633,-0.4634,-0.4634,-0.4664,-0.4664,-0.4664,-0.4664,-0.4727,-0.4728,-0.473,0,0,0,0,0,0,0,0,0,0,0,0,0,-0.4493,-0.4494,-0.4575,-0.4576,-0.4576,-0.4633,-0.4634,-0.4635,-0.4664,-0.4664,-0.4664,-0.4664,-0.4726,-0.4728,-0.473,0,0,0,0,0,0,0,0,0,0,0,0,0,-0.4537,-0.4495,-0.4575,-0.4598,-0.46,-0.4633,-0.4634,-0.4635,-0.4664,-0.4664,-0.4664,-0.4664,-0.4726,-0.4728,-0.4731,-0.4745,0,0,-0.4738,-0.4739,0,0,0,0,0,0,0,0,-0.4535,-0.454,-0.4594,-0.4596,-0.4599,-0.4641,-0.4628,-0.4672,-0.4664,-0.464,-0.4664,-0.4664,-0.4699,-0.4703,-0.4714,-0.4748,-0.4751,-0.4738,-0.474,-0.4741,-0.4742,0,0,0,0,0,0,0,-0.4532,-0.4538,-0.4598,-0.4594,-0.4598,-0.4606,-0.4613,-0.4636,-0.4669,-0.4642,-0.4644,-0.4651,-0.47,-0.4712,-0.4716,-0.4752,-0.4738,-0.4741,-0.4742,-0.4743,-0.4802,-0.4802,0,0,0,0,0,0,-0.4524,-0.4535,-0.4596,-0.46,-0.4566,-0.4608,-0.4615,-0.4628,-0.4668,-0.4674,-0.4651,-0.4652,-0.4708,-0.4713,-0.4718,-0.4739,-0.4741,-0.4743,-0.4745,-0.4802,-0.4802,-0.4802,0,0,0,0,0,0,-0.4523,-0.453,-0.4594,-0.4568,-0.4577,-0.4609,-0.4623,-0.4629,-0.4641,-0.4675,-0.4681,-0.4656,-0.4708,-0.4715,-0.4738,-0.4741,-0.4744,-0.4747,-0.4802,-0.4802,-0.4802,-0.478,0,0,0,0,0,0,-0.452,-0.4529,-0.4534,-0.4568,-0.4578,-0.4612,-0.4624,-0.463,-0.4644,-0.4647,-0.4682,-0.4688,-0.4708,-0.4735,-0.4741,-0.4745,-0.4749,-0.4802,-0.4802,-0.4802,-0.478,-0.4779,-0.4778,0,0,0,0,0,-0.4517,-0.4526,-0.4534,-0.4541,-0.4585,-0.4612,-0.4618,-0.4641,-0.4644,-0.4651,-0.4673,-0.4687,-0.474,-0.4737,-0.4744,-0.4749,-0.4802,-0.4802,-0.4802,-0.4781,-0.4779,-0.4778,0,0,0,0,0,0,-0.4492,-0.4531,-0.454,-0.456,-0.4582,-0.4617,-0.4625,-0.4638,-0.4661,-0.4662,-0.469,-0.4698,-0.4719,-0.4737,-0.4732,-0.4766,-0.4773,-0.4774,-0.4754,-0.4753,-0.4751,-0.4747,-0.4751,0,0,0,0,0,-0.4489,-0.4506,-0.4539,-0.4554,-0.4564,-0.4593,-0.4605,-0.4621,-0.4645,-0.4655,-0.4679,-0.4704,-0.4726,-0.474,-0.4763,-0.4783,-0.4792,-0.479,-0.4789,-0.4788,-0.4789,-0.4802,-0.4802,-0.4803,-0.4803,-0.4803,0,0,-0.4482,-0.4505,-0.4515,-0.4549,-0.4568,-0.4587,-0.46,-0.4619,-0.4634,-0.4659,-0.4682,-0.4701,-0.473,-0.4752,-0.4763,-0.4767,-0.4791,-0.4788,-0.4787,-0.4789,-0.4802,-0.4802,-0.4802,-0.4803,-0.4803,-0.4803,0,0,-0.448,-0.4499,-0.4513,-0.4532,-0.456,-0.4579,-0.4582,-0.4615,-0.4628,-0.4652,-0.4671,-0.4689,-0.4727,-0.4747,-0.4763,-0.4768,-0.4782,-0.4775,-0.4769,-0.4781,-0.4781,-0.4781,-0.4784,-0.4784,-0.4776,-0.4776,-0.4776,0,-0.4468,-0.4496,-0.4519,-0.4537,-0.4552,-0.4574,-0.4589,-0.4607,-0.4642,-0.4652,-0.4656,-0.4704,-0.4726,-0.4753,-0.4754,-0.4766,-0.4771,-0.4771,-0.4779,-0.4779,-0.478,-0.4783,-0.4783,-0.4775,-0.4775,-0.4775,-0.4775,0,-0.4481,-0.45,-0.4508,-0.454,-0.4556,-0.4572,-0.4599,-0.4613,-0.4627,-0.4646,-0.467,-0.4697,-0.4725,-0.4733,-0.4747,-0.4763,-0.4764,-0.4773,-0.478,-0.4778,-0.4781,-0.4782,-0.4773,-0.4774,-0.4774,-0.4774,0,0,-0.4464,-0.4509,-0.4511,-0.4526,-0.456,-0.4575,-0.4593,-0.462,-0.4632,-0.4655,-0.4672,-0.4703,-0.4712,-0.4729,-0.4746,-0.4757,-0.476,-0.4765,-0.4766,-0.4763,-0.478,-0.4773,-0.4774,-0.477,-0.477,-0.477,-0.4778,0,-0.4467,-0.4499,-0.452,-0.4544,-0.4562,-0.4584,-0.46,-0.4623,-0.4641,-0.4661,-0.4681,-0.4703,-0.4712,-0.4723,-0.4735,-0.4757,-0.4764,-0.4757,-0.4786,-0.4787,-0.4778,-0.4776,-0.4768,-0.4774,-0.4779,-0.4779,-0.4779,0,-0.4474,-0.4496,-0.4521,-0.4553,-0.4562,-0.4575,-0.4602,-0.4619,-0.4646,-0.4659,-0.4678,-0.4696,-0.4717,-0.4722,-0.4752,-0.4747,-0.476,-0.4774,-0.4774,-0.4778,-0.4783,-0.478,-0.4776,-0.4777,-0.4781,-0.4781,-0.4781,0,-0.446,-0.4496,-0.4516,-0.4528,-0.4565,-0.4574,-0.4591,-0.4617,-0.4632,-0.4656,-0.4666,-0.4693,-0.4707,-0.4728,-0.4752,-0.4753,-0.478,-0.4787,-0.4792,-0.4792,-0.4797,-0.4796,-0.4796,-0.4805,-0.4805,-0.4805,-0.4805,0,-0.4461,-0.4476,-0.451,-0.4522,-0.454,-0.4565,-0.4582,-0.4601,-0.4624,-0.4641,-0.4662,-0.4678,-0.4709,-0.473,-0.4749,-0.4772,-0.4778,-0.479,-0.4795,-0.4788,-0.4787,-0.4797,-0.4798,-0.4805,-0.4805,-0.4805,-0.4805,0,-0.4448,-0.4471,-0.4494,-0.4528,-0.4537,-0.4548,-0.4577,-0.4591,-0.461,-0.4632,-0.4639,-0.4669,-0.4694,-0.4721,-0.4755,-0.4768,-0.479,-0.4797,-0.478,-0.4783,-0.4787,-0.4786,-0.4794,-0.4796,-0.4803,-0.4803,-0.4803,0,-0.4447,-0.4459,-0.4493,-0.4505,-0.4521,-0.4541,-0.4556,-0.4581,-0.4597,-0.4628,-0.4638,-0.4664,-0.4687,-0.4726,-0.4752,-0.4779,-0.4786,-0.4787,-0.4791,-0.4784,-0.4787,-0.4786,-0.4788,-0.4786,-0.4786,-0.4786,-0.4786,0,-0.4443,-0.4454,-0.4474,-0.4499,-0.4516,-0.4537,-0.4559,-0.4568,-0.4598,-0.4614,-0.4639,-0.4657,-0.4691,-0.4718,-0.4747,-0.4765,-0.4781,-0.4784,-0.4787,-0.478,-0.477,-0.4776,-0.4778,-0.4784,-0.4784,-0.4784,-0.4784,-0.4784,-0.4436,-0.4448,-0.4474,-0.4496,-0.4515,-0.4535,-0.4549,-0.457,-0.4591,-0.462,-0.4635,-0.466,-0.4688,-0.4729,-0.4747,-0.4768,-0.4772,-0.4776,-0.4777,-0.4778,-0.4776,-0.4767,-0.4773,-0.4774,-0.4774,-0.4774,-0.4774,0,-0.4434,-0.4451,-0.4471,-0.4501,-0.4519,-0.453,-0.4555,-0.457,-0.4591,-0.4615,-0.4637,-0.4666,-0.4692,-0.472,-0.4748,-0.4759,-0.4767,-0.4766,-0.4765,-0.4769,-0.477,-0.4765,-0.4759,-0.4759,-0.4759,-0.4759,-0.4759,-0.4759,-0.4434,-0.4455,-0.4469,-0.4499,-0.4518,-0.4542,-0.4555,-0.4574,-0.4593,-0.4625,-0.4646,-0.4663,-0.469,-0.4719,-0.4744,-0.4752,-0.4761,-0.4758,-0.4768,-0.4768,-0.4769,-0.477,-0.4766,-0.4759,-0.4759,-0.4765,-0.4765,-0.4765]},{"header":{"parameterUnit":"m.s-1","parameterCategory":1,"la1":30.2991,"la2":30.254,"lo1":-89.0895,"lo2":-89.0444,"dy":0.0017,"dx":0.0017,"nx":28,"ny":28,"refTime":"2025-04-30T21:00:00:Z","depth":0,"parameterNumber":3,"parameterNumberName":"V-component_of_WINDS"},"data":[0,0,0,0,0,0,0,0,0,0,0,0,0,0,0,0,0,0,0,0,0,0,0,0,0,0,0,0,0,0,0,0,0,0,0,0,0,0,0,0,0,0,0,0,0,0,0,0,0,0,0,0,0,0,0,0,0,0,4.0937,4.0937,0,4.0954,4.0954,4.0954,4.0907,4.0905,4.0904,4.0902,4.0918,4.092,4.0922,0,0,0,0,0,0,0,0,0,0,0,0,0,4.0859,4.0861,4.0937,4.0937,4.0937,4.0954,4.0954,4.0954,4.0907,4.0905,4.0903,4.0902,4.0918,4.092,4.0922,0,0,0,0,0,0,0,0,0,0,0,0,0,4.0886,4.0862,4.0937,4.0915,4.0914,4.0954,4.0954,4.0955,4.0907,4.0905,4.0903,4.0901,4.0917,4.092,4.0922,4.0983,0,0,4.093,4.0932,0,0,0,0,0,0,0,0,4.0885,4.0889,4.0918,4.0917,4.0915,4.0926,4.0933,4.0964,4.0908,4.091,4.0902,4.09,4.0922,4.0925,4.0933,4.0984,4.0985,4.0931,4.0932,4.0933,4.0934,0,0,0,0,0,0,0,4.0883,4.0888,4.0943,4.0919,4.0917,4.0904,4.0905,4.0938,4.0928,4.0909,4.0906,4.0909,4.0921,4.093,4.0933,4.0985,4.0931,4.0933,4.0935,4.0936,4.1084,4.1086,0,0,0,0,0,0,4.0884,4.0887,4.0943,4.0944,4.0894,4.0907,4.0909,4.0925,4.0928,4.0926,4.0911,4.0906,4.0927,4.093,4.0933,4.1002,4.0933,4.0936,4.0938,4.1082,4.1085,4.1087,0,0,0,0,0,0,4.0883,4.089,4.0942,4.0915,4.092,4.0911,4.0929,4.0926,4.0935,4.0929,4.0926,4.0922,4.0925,4.0929,4.0971,4.1002,4.0937,4.094,4.1079,4.1083,4.1086,4.1143,0,0,0,0,0,0,4.0881,4.089,4.0913,4.0916,4.0922,4.0981,4.0931,4.0928,4.094,4.0935,4.0939,4.0937,4.0924,4.0967,4.0973,4.1005,4.0942,4.1076,4.1081,4.1085,4.1138,4.1148,4.1156,0,0,0,0,0,4.0878,4.0929,4.0915,4.0922,4.0952,4.0983,4.0986,4.097,4.0943,4.0966,4.0962,4.0937,4.0998,4.0971,4.0978,4.1011,4.1074,4.1079,4.1085,4.1134,4.1146,4.1156,0,0,0,0,0,0,4.0931,4.0929,4.0913,4.0966,4.0975,4.0974,4.1003,4.0984,4.1,4.0994,4.0973,4.0974,4.1018,4.1019,4.0989,4.1069,4.1031,4.1038,4.1067,4.1078,4.1087,4.1085,4.0944,0,0,0,0,0,4.0949,4.0974,4.0971,4.1018,4.1023,4.1013,4.1026,4.1012,4.102,4.1023,4.1022,4.103,4.105,4.1065,4.1084,4.1139,4.1137,4.1164,4.1174,4.1181,4.1186,4.1213,4.1224,4.1104,4.1104,4.1104,0,0,4.0985,4.0988,4.1005,4.1029,4.1034,4.106,4.1016,4.1046,4.1064,4.1028,4.1066,4.1065,4.1073,4.112,4.1141,4.1122,4.122,4.1188,4.1194,4.1195,4.122,4.1231,4.1241,4.1108,4.1107,4.1107,0,0,4.1065,4.1071,4.1109,4.1115,4.1123,4.1115,4.1125,4.1127,4.1125,4.1163,4.1136,4.1157,4.1194,4.12,4.1207,4.1288,4.1265,4.1295,4.1342,4.1368,4.1377,4.1385,4.1412,4.1422,4.1301,4.1301,4.1301,0,4.1109,4.1148,4.1131,4.1162,4.1172,4.1141,4.1178,4.1185,4.1199,4.1206,4.1185,4.1229,4.1232,4.1279,4.1299,4.1307,4.1315,4.1293,4.1377,4.1385,4.1393,4.1417,4.1428,4.1304,4.1304,4.1304,4.1303,0,4.1201,4.1228,4.1258,4.1272,4.1286,4.132,4.1307,4.1323,4.1309,4.1303,4.1341,4.1344,4.1361,4.1372,4.1359,4.1417,4.1405,4.1381,4.1342,4.1408,4.143,4.144,4.1309,4.1308,4.1307,4.1306,0,0,4.1314,4.1317,4.1328,4.1333,4.1339,4.1359,4.1391,4.1409,4.1422,4.1433,4.1457,4.1489,4.1466,4.1475,4.1462,4.1486,4.1546,4.1458,4.1458,4.1472,4.1608,4.1624,4.1635,4.1532,4.1534,4.1535,4.1606,0,4.139,4.1445,4.143,4.1485,4.1508,4.1478,4.1506,4.1512,4.1508,4.1526,4.1521,4.1542,4.1513,4.1517,4.1539,4.1534,4.1572,4.1529,4.1553,4.1554,4.1549,4.1647,4.1665,4.1732,4.1615,4.1617,4.1618,0,4.1486,4.15,4.1557,4.1557,4.1566,4.1592,4.1605,4.1624,4.163,4.1625,4.1634,4.1616,4.1646,4.1609,4.1649,4.162,4.1629,4.1628,4.163,4.163,4.1588,4.1647,4.1753,4.1762,4.1632,4.1631,4.163,0,4.1559,4.1592,4.1629,4.1635,4.1637,4.1655,4.1657,4.1661,4.1671,4.1684,4.169,4.1706,4.1714,4.1726,4.1712,4.1687,4.1753,4.1716,4.1748,4.1748,4.1761,4.176,4.1868,4.1772,4.1772,4.1772,4.1771,0,4.1644,4.168,4.1662,4.1685,4.1723,4.1705,4.1743,4.1741,4.1745,4.1765,4.1742,4.1762,4.1743,4.1761,4.1751,4.1784,4.1789,4.1784,4.178,4.1785,4.1785,4.1788,4.1782,4.1774,4.1774,4.1773,4.1773,0,4.1731,4.1721,4.176,4.1758,4.1759,4.1787,4.1785,4.1805,4.1799,4.1826,4.1831,4.1821,4.1841,4.1828,4.1849,4.1842,4.1885,4.1876,4.1882,4.1879,4.1911,4.1907,4.2022,4.2035,4.1934,4.1935,4.1936,0,4.1785,4.1811,4.1813,4.1825,4.1828,4.1849,4.1859,4.1843,4.1855,4.1862,4.1881,4.1899,4.1912,4.1946,4.194,4.1955,4.1944,4.1984,4.1946,4.1949,4.1942,4.1939,4.1941,4.199,4.1992,4.1993,4.1993,0,4.1881,4.1874,4.1891,4.1905,4.1918,4.1929,4.1937,4.1949,4.1932,4.1946,4.1966,4.1977,4.1997,4.2014,4.2027,4.2028,4.2007,4.2006,4.2013,4.2017,4.2018,4.2015,4.19,4.2002,4.2001,4.2001,4.2,4.2,4.1951,4.1972,4.1975,4.1994,4.1998,4.2006,4.2025,4.2021,4.2037,4.2052,4.2042,4.2065,4.2068,4.2083,4.2086,4.2103,4.2087,4.2099,4.2102,4.2104,4.2107,4.2018,4.2106,4.2106,4.2105,4.2105,4.2105,0,4.2043,4.2043,4.2061,4.2073,4.2087,4.2067,4.2075,4.2088,4.2109,4.2114,4.2127,4.2149,4.2166,4.2161,4.2176,4.219,4.2181,4.2194,4.2192,4.2191,4.2122,4.2113,4.2201,4.2201,4.2201,4.2201,4.2201,4.2201,4.2092,4.2125,4.2119,4.2154,4.2154,4.2176,4.2182,4.2189,4.2193,4.2218,4.2232,4.2229,4.2229,4.2244,4.2257,4.2256,4.2261,4.2277,4.2271,4.2206,4.2197,4.2188,4.2178,4.2279,4.2279,4.2339,4.2339,4.234]}]]